Miscellaneous Local Product
Issued by NWS Hastings, NE

Home | Current Version | Previous Version | Text Only | Print | Product List | Glossary Off
Versions: 1 2 3 4 5 6 7 8 9 10 11 12 13 14 15 16 17 18 19 20 21 22 23 24 25 26 27 28 29 30 31 32 33 34 35 36 37 38 39 40 41 42 43 44 45 46 47 48 49 50

000
AXUS43 KGID 232302
MISGRI

GID CWA HOURLY WEATHER ROUNDUP
NATIONAL WEATHER SERVICE HASTINGS NE
500 PM CST TUE DEC 23 2014

NOTE: "FAIR" INDICATES FEW OR NO CLOUDS BELOW 12,000 FEET WITH NO
SIGNIFICANT WEATHER AND/OR OBSTRUCTIONS TO VISIBILITY.

...SOUTH CENTRAL NEBRASKA...

CITY           SKY/WX    TMP DP  RH WIND       PRES   REMARKS
GRAND ISLAND   CLOUDY    33  28  81 N25G33    29.94R WCI  20
HASTINGS       CLOUDY    33  28  81 N21G31    29.92R WCI  21
KEARNEY        CLOUDY    32  25  74 NW23G35   29.96R WCI  19
ORD            CLOUDY    31  25  78 N28G39    29.98R WCI  17
YORK           CLOUDY    36  32  87 N16G24    29.88R WCI  26
AURORA         CLOUDY    35  32  89 N29       29.91R WCI  21
LEXINGTON      CLOUDY    32  27  80 N28G33    29.99R WCI  18
HOLDREGE       FLURRIES  32  27  81 N21G31    29.95R WCI  20
HEBRON         CLOUDY    36  32  86 N17G28    29.89R WCI  26

...NEBRASKA PANHANDLE...

CITY           SKY/WX    TMP DP  RH WIND       PRES   REMARKS
CHADRON        CLOUDY    32  23  69 N6        30.13R WCI  26
ALLIANCE       CLOUDY    29  23  78 N12       30.09F WCI  19
SCOTTSBLUFF    FAIR      32  19  58 NW20G29   30.13S WCI  20
SIDNEY         FAIR      29  18  63 N24G35    30.09R WCI  15

...WESTERN AND NORTH CENTRAL NEBRASKA...

CITY           SKY/WX    TMP DP  RH WIND       PRES   REMARKS
VALENTINE      CLOUDY    27  21  78 NW22G30   30.08R WCI  13
AINSWORTH      CLOUDY    27  23  85 NW28G36   30.04R FOG     WCI  12
ONEILL         LGT SNOW  31  30  96 NW28      29.97R WCI  17
BROKEN BOW     LGT SNOW  30  25  81 N30G38    29.99R WCI  15
IMPERIAL       LGT SNOW  30  24  78 N29G43    30.07R WCI  15
NORTH PLATTE   CLOUDY    30  22  72 NW23G33   30.05R WCI  17
MCCOOK         CLOUDY    33  25  72 N22G29    30.02R WCI  21

...EASTERN NEBRASKA...

CITY           SKY/WX    TMP DP  RH WIND       PRES   REMARKS
NORFOLK        CLOUDY    34  31  88 NW21G36   29.89R WCI  22
SO SIOUX CITY  CLOUDY    39  35  86 N17       29.85R WCI  30
TEKAMAH        LGT RAIN  37  34  89 N12       29.85R WCI  29
COLUMBUS       CLOUDY    36  28  75 N21G30    29.90R WCI  24
ALBION         CLOUDY    33  29  85 NW22G31   29.91R WCI  21
OMAHA EPPLEY   LGT RAIN  35  33  92 N16       29.85R FOG     WCI  25
OFFUTT AFB     LGT SNOW  35  33  92 NW13G21   29.83R FOG     WCI  27
MILLARD        LGT RAIN  36  33  91 NW8       29.84R WCI  29
LINCOLN        LGT RAIN  36  33  89 N17       29.87R FOG     WCI  26
NEBRASKA CITY  LGT SNOW  33  33 100 N12       29.81R WCI  25
BEATRICE       RAIN      34  33  96 N15G22    29.85R WCI  24
FALLS CITY     LGT RAIN  35  33  92 NW13      29.81R WCI  26

...NORTHERN KANSAS...

CITY           SKY/WX    TMP DP  RH WIND       PRES   REMARKS
GOODLAND       LGT SNOW  30  24  78 N35G49    30.04R WCI  14
HILL CITY      CLOUDY    33  26  75 N30G36    29.98R WCI  19
NORTON         CLOUDY    34  27  75 NW24G32   29.98R WCI  21
PHILLIPSBURG   MOCLDY    36  30  80 NW25G32   29.97R WCI  23
SMITH CENTER   MOCLDY    32  28  86 NW23G30   29.94R WCI  19
BELOIT         CLOUDY    36  34  93 NW18G30   29.90R WCI  25
HAYS           MOCLDY    32  21  64 N25G32    29.94R WCI  19
RUSSELL        LGT SNOW  32  31  96 NW24G31   29.91R FOG     WCI  19
CONCORDIA      LGT RAIN  35  34  96 N16       29.88R WCI  25
SALINA         MIX PCPN  37  33  85 NW18      29.88R WCI  27
TOPEKA         CLOUDY    40  35  83 NW12      29.81R WCI  33



USA.gov is the U.S. government's official web portal to all federal, state and local government web resources and services.